Weather History for Perry, IA

Change the Weather History Date:

Sunday, May 25, 2014

  Actual Average Record
Temperature  
Mean Temperature 70 °F -  
Max Temperature 77 °F 73 °F 96 °F (1967)
Min Temperature 62 °F 51 °F 37 °F (1979)
Cooling Degree Days 4    
Growing Degree Days 20 (Base 50)    
Moisture  
Dew Point 62 °F    
Average Humidity 85    
Maximum Humidity 97    
Minimum Humidity 67    
Precipitation  
Precipitation 0.12 in - - ()
Sea Level Pressure  
Sea Level Pressure 30.01 in    
Wind  
Wind Speed 8 mph (SSE)    
Max Wind Speed 23 mph    
Max Gust Speed 47 mph    
Visibility 9 miles    
Events Rain    
Averages and records for this station are not official NWS values.
T = Trace of Precipitation, MM = Missing Value Source: NWS Daily Summary

Daily Weather History Graph

Daily Weather History Graph

Search for Another Location

Airport:

Trip Planner

Search our weather history database for the weather conditions in past years. The results will help you decide how hot, cold, wet, or windy it might be!

Date:

Astronomy

May. 25, 2014 Rise Set
Actual Time 5:48 AM CDT 8:39 PM CDT
Civil Twilight 5:15 AM CDT 9:12 PM CDT
Nautical Twilight 4:33 AM CDT 9:54 PM CDT
Astronomical Twilight 3:45 AM CDT 10:42 PM CDT
Moon 3:56 AM CDT (5/25) 5:38 PM CDT (5/25)
Length of Visible Light 15h 57m
Length of Day
14h 51m
Waning Crescent, 10% of the Moon is Illuminated
May 25
Waning Crescent
May 28
New
Jun 5
First Quarter
Jun 12
Full
Jun 19
Last Quarter

Hourly Weather History & Observations

Time (CDT) Temp. Dew Point Humidity Pressure Visibility Wind Dir Wind Speed Gust Speed Precip Events Conditions
12:15 AM 62.6 °F 55.6 °F 78% 30.06 in 10.0 mi ESE 4.6 mph - N/A   Clear
12:35 AM 63.1 °F 56.1 °F 78% 30.06 in 10.0 mi ESE 6.9 mph - N/A   Mostly Cloudy
12:55 AM 63.1 °F 55.8 °F 77% 30.06 in 10.0 mi ESE 5.8 mph - N/A   Scattered Clouds
1:15 AM 62.8 °F 55.6 °F 77% 30.06 in 10.0 mi ESE 5.8 mph - N/A   Mostly Cloudy
1:35 AM 63.7 °F 55.8 °F 75% 30.05 in 10.0 mi ESE 4.6 mph - N/A   Overcast
1:55 AM 64.2 °F 56.3 °F 75% 30.05 in 10.0 mi SE 4.6 mph - N/A   Overcast
2:15 AM 64.4 °F 56.5 °F 75% 30.05 in 10.0 mi SE 5.8 mph - N/A   Overcast
2:35 AM 64.6 °F 56.8 °F 76% 30.04 in 10.0 mi SE 5.8 mph - N/A   Overcast
2:55 AM 64.8 °F 57.6 °F 77% 30.04 in 10.0 mi SSE 6.9 mph - N/A   Overcast
3:15 AM 64.2 °F 58.6 °F 82% 30.04 in 10.0 mi SE 8.1 mph - N/A   Overcast
3:35 AM 63.9 °F 59.0 °F 84% 30.04 in 10.0 mi ESE 5.8 mph - N/A   Overcast
3:55 AM 63.9 °F 59.0 °F 84% 30.04 in 10.0 mi East 6.9 mph - N/A   Overcast
4:15 AM 63.7 °F 58.1 °F 82% 30.04 in 10.0 mi ESE 8.1 mph - N/A   Overcast
4:35 AM 63.7 °F 58.1 °F 82% 30.04 in 10.0 mi SE 6.9 mph - N/A   Overcast
4:55 AM 63.9 °F 58.3 °F 82% 30.04 in 10.0 mi SE 6.9 mph - N/A   Overcast
5:15 AM 64.0 °F 59.0 °F 84% 30.04 in 10.0 mi SSE 9.2 mph - N/A   Overcast
5:35 AM 64.2 °F 59.0 °F 83% 30.03 in 10.0 mi SSE 9.2 mph - N/A   Overcast
5:55 AM 63.9 °F 59.9 °F 87% 30.03 in 10.0 mi SE 10.4 mph - N/A   Overcast
6:15 AM 63.7 °F 60.4 °F 89% 30.03 in 10.0 mi SE 10.4 mph - N/A   Overcast
6:35 AM 63.5 °F 60.8 °F 91% 30.04 in 10.0 mi SE 9.2 mph - N/A   Overcast
6:55 AM 64.0 °F 60.6 °F 89% 30.04 in 10.0 mi SSE 10.4 mph - N/A Rain Light Rain
7:15 AM 63.0 °F 61.2 °F 94% 30.04 in 4.0 mi SSE 11.5 mph - N/A Rain Light Rain
7:35 AM 62.6 °F 61.2 °F 95% 30.04 in 3.0 mi SSE 10.4 mph - 0.02 in Rain Light Rain
7:55 AM 62.2 °F 61.2 °F 96% 30.04 in 2.5 mi SSE 9.2 mph - 0.04 in Rain Light Rain
8:15 AM 62.4 °F 61.5 °F 97% 30.04 in 3.0 mi SSE 8.1 mph - 0.01 in   Overcast
8:35 AM 62.8 °F 61.7 °F 96% 30.04 in 4.0 mi SE 9.2 mph - 0.01 in   Overcast
8:55 AM 63.5 °F 62.1 °F 95% 30.04 in 5.0 mi SSE 11.5 mph - 0.01 in   Overcast
9:15 AM 64.0 °F 62.4 °F 94% 30.05 in 5.0 mi SSE 11.5 mph - N/A   Overcast
9:55 AM 65.1 °F 62.6 °F 92% 30.04 in 7.0 mi SSE 12.7 mph - N/A   Overcast
10:15 AM 65.3 °F 62.4 °F 90% 30.04 in 10.0 mi SE 12.7 mph - N/A   Overcast
10:35 AM 65.8 °F 62.8 °F 90% 30.03 in 10.0 mi SSE 13.8 mph - N/A   Overcast
10:55 AM 66.0 °F 62.8 °F 89% 30.03 in 7.0 mi SSE 11.5 mph - N/A   Overcast
11:15 AM 66.4 °F 63.0 °F 89% 30.03 in 7.0 mi SSE 13.8 mph - N/A   Overcast
11:55 AM 68.7 °F 63.7 °F 84% 30.03 in 7.0 mi SSE 10.4 mph - N/A   Overcast
12:15 PM 69.3 °F 64.2 °F 84% 30.03 in 10.0 mi South 9.2 mph - N/A   Overcast
12:35 PM 70.3 °F 64.9 °F 83% 30.01 in 10.0 mi SSE 11.5 mph - N/A   Overcast
12:55 PM 70.0 °F 64.6 °F 83% 30.01 in 10.0 mi SSE 10.4 mph - N/A   Overcast
1:15 PM 70.7 °F 64.6 °F 81% 30.01 in 10.0 mi South 11.5 mph - N/A   Overcast
1:55 PM 71.6 °F 64.8 °F 79% 30.00 in 10.0 mi SSE 12.7 mph - N/A   Overcast
2:15 PM 72.5 °F 65.3 °F 78% 29.99 in 10.0 mi SSE 12.7 mph - N/A   Overcast
2:35 PM 72.1 °F 65.1 °F 78% 29.99 in 10.0 mi SSE 11.5 mph - N/A   Overcast
2:55 PM 73.0 °F 65.1 °F 76% 29.98 in 10.0 mi South 11.5 mph - N/A   Overcast
3:15 PM 73.8 °F 65.5 °F 75% 29.98 in 10.0 mi South 10.4 mph - N/A   Overcast
3:35 PM 75.4 °F 65.3 °F 71% 29.97 in 10.0 mi SSE 11.5 mph - N/A   Overcast
3:55 PM 76.3 °F 65.5 °F 69% 29.97 in 10.0 mi SSE 10.4 mph - N/A   Overcast
4:15 PM 77.7 °F 66.0 °F 67% 29.97 in 10.0 mi South 8.1 mph 16.1 mph N/A   Mostly Cloudy
4:35 PM 77.9 °F 66.6 °F 68% 29.96 in 10.0 mi SSE 9.2 mph - N/A   Scattered Clouds
4:55 PM 77.9 °F 66.7 °F 68% 29.96 in 10.0 mi SSE 10.4 mph - N/A   Mostly Cloudy
5:15 PM 77.9 °F 66.6 °F 68% 29.96 in 10.0 mi South 6.9 mph - N/A   Scattered Clouds
5:35 PM 77.5 °F 66.9 °F 70% 29.94 in 10.0 mi SSE 9.2 mph - N/A   Clear
5:55 PM 77.4 °F 67.3 °F 71% 29.95 in 10.0 mi SSE 10.4 mph - N/A   Clear
6:15 PM 76.5 °F 67.5 °F 74% 29.96 in 10.0 mi South 23.0 mph 47.2 mph N/A   Scattered Clouds
6:35 PM 68.9 °F 62.8 °F 81% 29.96 in 10.0 mi WSW 20.7 mph - N/A Rain Light Rain
6:55 PM 67.5 °F 64.2 °F 89% 29.94 in 10.0 mi South 10.4 mph - N/A   Light Drizzle
7:15 PM 66.2 °F 64.0 °F 93% 29.93 in 10.0 mi SSW 5.8 mph - N/A   Drizzle
7:35 PM 66.2 °F 64.6 °F 94% 29.91 in 5.0 mi ESE 6.9 mph - 0.03 in Rain Rain
7:55 PM 66.0 °F 64.6 °F 95% 29.92 in 10.0 mi SSE 8.1 mph - 0.05 in Rain Light Rain
8:15 PM 65.8 °F 64.2 °F 94% 29.94 in 10.0 mi South 15.0 mph - 0.01 in Rain Light Rain
8:35 PM 65.5 °F 64.4 °F 96% 29.96 in 10.0 mi SSW 12.7 mph - 0.02 in   Light Drizzle
8:55 PM 65.5 °F 64.0 °F 95% 29.96 in 10.0 mi SSW 6.9 mph - 0.02 in   Light Drizzle
9:15 PM 65.3 °F 63.7 °F 94% 29.97 in 10.0 mi South 6.9 mph - N/A   Scattered Clouds
9:35 PM 65.3 °F 63.5 °F 94% 29.98 in 10.0 mi SE 6.9 mph - N/A   Clear
9:55 PM 65.3 °F 63.5 °F 94% 29.99 in 10.0 mi ESE 6.9 mph - N/A   Mostly Cloudy
10:15 PM 65.3 °F 63.5 °F 94% 30.00 in 10.0 mi East 5.8 mph - N/A   Overcast
10:35 PM 65.3 °F 63.5 °F 94% 29.99 in 10.0 mi ESE 5.8 mph - N/A   Overcast
10:55 PM 65.5 °F 63.7 °F 94% 29.99 in 10.0 mi ESE 5.8 mph - N/A   Overcast
11:15 PM 64.9 °F 63.5 °F 95% 29.99 in 10.0 mi SE 5.8 mph - N/A   Overcast
11:35 PM 64.8 °F 63.5 °F 96% 29.99 in 10.0 mi SE 3.5 mph - N/A   Overcast
11:55 PM 64.4 °F 63.5 °F 97% 29.99 in 10.0 mi SE 3.5 mph - N/A Rain Light Rain